Regional Weather Roundup
Issued by NWS

Home | Current Version | Previous Version | Graphics & Text | Print | Product List | Glossary Off
Versions: 1 2 3 4 5 6 7 8 9 10 11 12 13 14 15 16 17 18 19 20 21 22 23 24 25 26 27 28 29 30 31 32 33 34 35 36 37 38 39 40 41 42 43 44 45 46 47 48 49 50

000
ASUS43 KDTX 231810
RWRMI
MICHIGAN HOURLY REGIONAL WEATHER ROUNDUP
NATIONAL WEATHER SERVICE DETROIT/PONTIAC MI
200 PM EDT TUE MAY 23 2017

NOTE: "FAIR" INDICATES FEW OR NO CLOUDS BELOW 12,000 FEET WITH NO
SIGNIFICANT WEATHER AND/OR OBSTRUCTION TO VISIBILITY.

MIZ047>049-052>055-059>063-066>070-074>076-081>083-231900-
SOUTHEAST LOWER MICHIGAN

CITY           SKY/WX    TMP DP  RH WIND       PRES   REMARKS
ADRIAN         CLOUDY    70  49  47 VRB5      29.80F
6HR MIN TEMP:  57; 6HR MAX TEMP:  71;

ALMA           CLOUDY    67  55  66 S6G21     29.80F
ANN ARBOR      PTSUNNY   70  51  51 S5        29.80F
BAD AXE        CLOUDY    66  55  67 S6        29.82F
6HR MIN TEMP:  56; 6HR MAX TEMP:  66;

CARO           CLOUDY    65  54  68 S12       29.81F
DETROIT CITY   CLOUDY    72  50  45 S12       29.81F
6HR MIN TEMP:  60; 6HR MAX TEMP:  73;

DETROIT        CLOUDY    70  49  47 S8        29.81F
6HR MIN TEMP:  60; 6HR MAX TEMP:  72;

FLINT          LGT RAIN  64  54  69 W6        29.83F
6HR MIN TEMP:  58; 6HR MAX TEMP:  65; 6HR PCP:  0.02;

GROSSE ILE     CLOUDY    67  52  57 SE6       29.81F
6HR MIN TEMP:  60; 6HR MAX TEMP:  68;

HILLSDALE      PTSUNNY   68  48  49 S8        29.79F
HOWELL         CLOUDY    67  51  57 W6        29.82F
6HR MIN TEMP:  58; 6HR MAX TEMP:  68;


CITY           SKY/WX    TMP DP  RH WIND       PRES   REMARKS
JACKSON        CLOUDY    71  51  49 VRB3      29.80F
6HR MIN TEMP:  59; 6HR MAX TEMP:  71;

LAMBERTVILLE   PTSUNNY   71  47  42 SE8       29.79F
6HR MIN TEMP:  59; 6HR MAX TEMP:  72;

LANSING        CLOUDY    67  51  56 S13       29.82F
6HR MIN TEMP:  59; 6HR MAX TEMP:  69; 6HR PCP: TRACE;

LAPEER         CLOUDY    67  51  57 W6        29.83F
6HR MIN TEMP:  56; 6HR MAX TEMP:  67;

MASON          LGT RAIN  67  56  68 W3        29.81F
MONROE         CLOUDY    71  50  47 S6        29.79F
6HR MIN TEMP:  60; 6HR MAX TEMP:  73;

MT. CLEMENS    PTSUNNY   71  56  59 E9        29.80F
6HR MIN TEMP:  61; 6HR MAX TEMP:  71;

PONTIAC        CLOUDY    66  51  58 W5        29.81F
6HR MIN TEMP:  57; 6HR MAX TEMP:  68; 6HR PCP: TRACE;

PORT HOPE        N/A     55  53  93 SE5       29.81F
6HR MIN TEMP:  54; 6HR MAX TEMP:  63; 6HR PCP:  0.08;

PORT HURON     CLOUDY    70  46  43 S9        29.82F
TRI CITIES       N/A    N/A N/A N/A MISG      29.80F
6HR MIN TEMP:  58; 6HR MAX TEMP:  69; 6HR PCP: TRACE;

MIDLAND        CLOUDY    67  52  57 CALM      29.78F
6HR MIN TEMP:  57; 6HR MAX TEMP:  68; 6HR PCP:  0.01;

TROY           CLOUDY    72  44  37 CALM      29.82F
SAGINAW HB     CLOUDY    70  46  43 SW16G24   29.80S
$$
MIZ043>046-050>051-056>058-064>065-071>073-077>080-231900-
SOUTHWEST LOWER MICHIGAN

CITY           SKY/WX    TMP DP  RH WIND       PRES   REMARKS
BATTLE CREEK   CLOUDY    66  51  58 SW9       29.81F
6HR MIN TEMP:  59; 6HR MAX TEMP:  67; 6HR PCP: TRACE;

BENTON HARBOR  CLOUDY    61  54  77 W5        29.80F
6HR MIN TEMP:  59; 6HR MAX TEMP:  65; 6HR PCP:  0.02;

BIG RAPIDS     PTSUNNY   66  52  60 S5        29.77F
6HR MIN TEMP:  54; 6HR MAX TEMP:  66;

COLDWATER      CLOUDY    71  51  49 W3        29.79F
6HR MIN TEMP:  58; 6HR MAX TEMP:  71;

FREMONT        FAIR      64  50  60 SW15      29.78S
HOLLAND        LGT RAIN  60  57  89 SW9       29.81F
6HR MIN TEMP:  60; 6HR MAX TEMP:  64; 6HR PCP:  0.02;

GRAND RAPIDS   LGT RAIN  62  56  80 W15       29.81S
6HR MIN TEMP:  59; 6HR MAX TEMP:  66; 6HR PCP:  0.01;

IONIA          HVY RAIN  62  55  76 S12G18    29.80F
6HR MIN TEMP:  59; 6HR MAX TEMP:  66; 6HR PCP:  0.01;

KALAMAZOO      LGT RAIN  64  52  64 W8        29.82S
6HR MIN TEMP:  59; 6HR MAX TEMP:  67; 6HR PCP: TRACE;

LUDINGTON      CLOUDY    57  53  87 W5        29.78F
6HR MIN TEMP:  55; 6HR MAX TEMP:  61; 6HR PCP:  0.10;

MARSHALL       CLOUDY    67  51  57 W3        29.80F
6HR MIN TEMP:  58; 6HR MAX TEMP:  69;

MOUNT PLEASANT RAIN      66  51  60 SW8       29.78F
6HR MIN TEMP:  57; 6HR MAX TEMP:  68;

MUSKEGON       CLOUDY    61  53  75 SW12      29.80F
6HR MIN TEMP:  57; 6HR MAX TEMP:  66;

SOUTH HAVEN    LGT RAIN  61  58  90 SW5       29.81F
$$
MIZ016>042-231900-
NORTHERN LOWER MICHIGAN

CITY           SKY/WX    TMP DP  RH WIND       PRES   REMARKS
ALPENA         CLOUDY    63  50  62 E8        29.81F
6HR MIN TEMP:  50; 6HR MAX TEMP:  66;

BEAVER ISLAND  CLOUDY    59  43  55 E8        29.83F
6HR MIN TEMP:  45; 6HR MAX TEMP:  59;

BELLAIRE       CLOUDY    64  46  52 CALM      29.78F
6HR MIN TEMP:  46; 6HR MAX TEMP:  65;

CADILLAC       PTSUNNY   67  50  54 SW6       29.78F
CHARLEVOIX     CLOUDY    48  47  93 N6        29.84F
6HR MIN TEMP:  46; 6HR MAX TEMP:  53;

FRANKFORT      CLOUDY    59  51  74 CALM      29.79F
GAYLORD        CLOUDY    64  45  49 NE7       29.79F
6HR MIN TEMP:  48; 6HR MAX TEMP:  66;

GRAYLING       CLOUDY    65  53  65 N6        29.79F
6HR MIN TEMP:  44; 6HR MAX TEMP:  65;

HARBOR SPRINGS CLOUDY    48  44  86 SW6       29.81F
HOUGHTON LAKE  MOSUNNY   66  51  58 NW7       29.78F
6HR MIN TEMP:  49; 6HR MAX TEMP:  67; 6HR PCP: TRACE;

MANISTEE       CLOUDY    61  55  81 NW6       29.78F
OSCODA         CLOUDY    58  51  77 E8        29.81S
6HR MIN TEMP:  55; 6HR MAX TEMP:  64; 6HR PCP:  0.01;

PELLSTON       PTSUNNY   62  47  57 NE7       29.82F
6HR MIN TEMP:  43; 6HR MAX TEMP:  62;

ROGERS CITY    CLOUDY    48  47  97 N6        29.85S FOG
TRAVERSE CITY  CLOUDY    59  47  64 NE8       29.79F
6HR MIN TEMP:  50; 6HR MAX TEMP:  61;

$$
MIZ007>008-015-231900-
EASTERN UPPER MICHIGAN

CITY           SKY/WX    TMP DP  RH WIND       PRES   REMARKS
KINROSS        MOSUNNY   61  45  55 E3        29.82F
6HR MIN TEMP:  45; 6HR MAX TEMP:  61;

MACKINAC ISLAN MOSUNNY   51  51 100 SE7       29.83F
6HR MIN TEMP:  43; 6HR MAX TEMP:  51;

NEWBERRY       CLOUDY    58  44  61 CALM      29.82S
6HR MIN TEMP:  41; 6HR MAX TEMP:  59;

S. S. MARIE    MOSUNNY   62  49  62 NW7       29.82F
6HR MIN TEMP:  47; 6HR MAX TEMP:  62;

MUNISING         N/A     45  43  93 NE9       29.85S
6HR MIN TEMP:  44; 6HR MAX TEMP:  55;

$$
MIZ004>006-011>014-085-231900-
CENTRAL UPPER MICHIGAN

CITY           SKY/WX    TMP DP  RH WIND       PRES   REMARKS
MANISTIQUE     CLOUDY    55  44  65 NE6       29.82F
6HR MIN TEMP:  42; 6HR MAX TEMP:  55;

ESCANABA       CLOUDY    55  46  71 N5        29.83F
6HR MIN TEMP:  45; 6HR MAX TEMP:  55;

MENOMINEE      RAIN      50  46  86 E10       29.83S
6HR MIN TEMP:  47; 6HR MAX TEMP:  52; 6HR PCP:  0.04;

SAWYER-GWINN   CLOUDY    54  43  66 CALM      29.84F
$$
MIZ001>003-009>011-084-231900-
WESTERN UPPER MICHIGAN

CITY           SKY/WX    TMP DP  RH WIND       PRES   REMARKS
IRON MOUNTAIN  CLOUDY    56  41  57 E3        29.81F
6HR MIN TEMP:  42; 6HR MAX TEMP:  56; 6HR PCP: TRACE;

HOUGHTON       CLOUDY    55  45  68 E5        29.85S
6HR MIN TEMP:  48; 6HR MAX TEMP:  55;

COPPER HARBOR    N/A     42  39  89 NE6       29.88S
6HR MIN TEMP:  40; 6HR MAX TEMP:  45;

IRONWOOD       CLOUDY    55  45  68 N8        29.85F
6HR MIN TEMP:  43; 6HR MAX TEMP:  55; 6HR PCP:  0.01;

$$

ABBREVIATIONS USED IN REMARKS
   TC - TEMPERATURE IN CELSIUS
  WCI - WIND CHILL INDEX
   HX - HEAT INDEX
  VSB - VISIBILITY





USA.gov is the U.S. government's official web portal to all federal, state and local government web resources and services.